Charlotte, NC

3:43 AM EST on November 25, 2017 (GMT -0500)
Charlotte-Douglas International

Weather History for KCLT - February, 2014

Change the Weather History Date:

Sunday, February 16, 2014

  Actual Average Record
Temperature  
Mean Temperature 44 °F 44 °F  
Max Temperature 57 °F 55 °F 76 °F (1976)
Min Temperature 30 °F 33 °F 11 °F (1905)
Degree Days  
Heating Degree Days 21 21  
Month to date heating degree days 365 358  
Since 1 July heating degree days 2498 2465  
Cooling Degree Days 0 0  
Month to date cooling degree days 0 0  
Year to date cooling degree days 0 0  
Moisture  
Dew Point 24 °F    
Average Humidity 51    
Maximum Humidity 72    
Minimum Humidity 30    
Precipitation  
Precipitation T in 0.12 in 2.28 in (1942)
Month to date precipitation 2.31 1.78  
Year to date precipitation 5.22 5.19  
Snow  
Snow 0.00 in 0.00 in 8.70 in (1969)
Month to date snowfall 8.4 0.7  
Since 1 July snowfall 9.3 3.2  
Snow Depth 0.00 in    
Sea Level Pressure  
Sea Level Pressure 30.08 in    
Wind  
Wind Speed 5 mph (SSW)    
Max Wind Speed 13 mph    
Max Gust Speed 20 mph    
Visibility 10 miles    
Events      
T = Trace of Precipitation, MM = Missing Value Source: NWS Daily Summary

Daily Weather History Graph

Daily Weather History Graph

Search for Another Location

Airport or City:

Trip Planner

Search our weather history database for the weather conditions in past years. The results will help you decide how hot, cold, wet, or windy it might be!

Date:

Astronomy

Feb. 16, 2014 Rise Set
Actual Time 7:08 AM EST 6:07 PM EST
Civil Twilight 6:42 AM EST 6:33 PM EST
Nautical Twilight 6:13 AM EST 7:02 PM EST
Astronomical Twilight 5:43 AM EST 7:32 PM EST
Moon 7:56 PM EST (2/16) 7:43 AM EST (2/16)
Length of Visible Light 11h 50m
Length of Day
10h 58m
Full, 97% of the Moon is Illuminated
Feb 16
Full
Feb 22
Last Quarter
Mar 1
New
Mar 8
First Quarter
Mar 16
Full

Hourly Weather History & Observations

Time (EST) Temp. Windchill Dew Point Humidity Pressure Visibility Wind Dir Wind Speed Gust Speed Precip Events Conditions
12:52 AM 32.0 °F - 19.9 °F 61% 30.07 in 10.0 mi Calm Calm - N/A   Overcast
1:52 AM 32.0 °F 27.5 °F 19.0 °F 59% 30.04 in 10.0 mi NE 4.6 mph - N/A   Overcast
2:52 AM 33.1 °F - 19.9 °F 59% 30.05 in 10.0 mi Calm Calm - N/A   Overcast
3:52 AM 32.0 °F - 21.0 °F 64% 30.06 in 10.0 mi Calm Calm - N/A   Overcast
4:52 AM 33.1 °F 28.7 °F 21.0 °F 61% 30.05 in 10.0 mi SE 4.6 mph - 0.00 in   Overcast
5:52 AM 34.0 °F 31.0 °F 21.9 °F 61% 30.07 in 10.0 mi NNE 3.5 mph - 0.00 in   Overcast
6:52 AM 30.9 °F 25.2 °F 23.0 °F 72% 30.08 in 10.0 mi South 5.8 mph - N/A   Scattered Clouds
7:52 AM 32.0 °F - 24.1 °F 73% 30.09 in 10.0 mi Calm Calm - N/A   Scattered Clouds
8:52 AM 35.1 °F 29.3 °F 23.0 °F 61% 30.11 in 10.0 mi South 6.9 mph - N/A   Partly Cloudy
9:52 AM 39.0 °F 34.0 °F 21.9 °F 50% 30.12 in 10.0 mi South 6.9 mph - N/A   Clear
10:52 AM 42.1 °F 37.1 °F 23.0 °F 47% 30.10 in 10.0 mi South 8.1 mph - N/A   Partly Cloudy
11:52 AM 46.0 °F 42.5 °F 24.1 °F 42% 30.09 in 10.0 mi South 6.9 mph - N/A   Partly Cloudy
12:52 PM 50.0 °F - 25.0 °F 38% 30.07 in 10.0 mi SW 6.9 mph - N/A   Partly Cloudy
1:52 PM 52.0 °F - 26.1 °F 37% 30.05 in 10.0 mi Variable 4.6 mph - N/A   Partly Cloudy
2:52 PM 55.0 °F - 27.0 °F 34% 30.03 in 10.0 mi SW 12.7 mph - N/A   Scattered Clouds
3:52 PM 55.0 °F - 25.0 °F 31% 30.02 in 10.0 mi South 3.5 mph - N/A   Scattered Clouds
4:52 PM 55.9 °F - 26.1 °F 32% 30.02 in 10.0 mi WSW 4.6 mph - N/A   Scattered Clouds
5:52 PM 53.1 °F - 27.0 °F 37% 30.04 in 10.0 mi SSW 6.9 mph - N/A   Partly Cloudy
6:52 PM 48.9 °F - 28.9 °F 46% 30.06 in 10.0 mi SSW 8.1 mph - N/A   Partly Cloudy
7:52 PM 48.0 °F - 28.0 °F 46% 30.09 in 10.0 mi WSW 4.6 mph - N/A   Clear
8:52 PM 48.0 °F - 28.0 °F 46% 30.11 in 10.0 mi NNW 4.6 mph - N/A   Scattered Clouds
9:52 PM 42.1 °F 39.2 °F 28.0 °F 58% 30.12 in 10.0 mi NNE 4.6 mph - N/A   Scattered Clouds
10:52 PM 44.1 °F 40.8 °F 27.0 °F 51% 30.12 in 10.0 mi NNE 5.8 mph - N/A   Scattered Clouds
11:52 PM 44.1 °F - 27.0 °F 51% 30.14 in 10.0 mi Calm Calm - N/A   Scattered Clouds